FENGYUN 1C DEB, 32099

Orbit data source: Space-Track

FENGYUN 1C DEB, 32099 is space debris in SSO originally from a launch on Mon, 10 May 1999 UTC launched from the Taiyaun Space Center, China (TSC). Fengyun 1C debris stems from the Chinese weather satellite Fengyun-1C, which was intentionally destroyed by a Chinese anti-satellite missile in 2007. This event dramatically increased the amount of space debris, with thousands of trackable fragments posing hazards to satellites and human spaceflight. The Fengyun 1C debris cloud has become a focal point in discussions about space sustainability and the need for international regulations to prevent the creation of new debris.

Loading next visibility...
Identifier
32099, 1999-025CQR
Orbit
SSO
Country
Flag of CNCN / PRC
Related business
Manufacturer
Unknown
Mission
Spacecraft
Bus & Motor
Unknown
Mass
Unknown
Launch date (UTC)
1999-05-10 (27 years ago)
Launch vehicle
Unknown
Launch site
Taiyaun Space Center, China (TSC)
Object type
Payload
Rocket body
Debris
Shape & HBR
Unknown shape, 0.1 m
Radar Cross Section
Small (<0.1 m²)

Expand to show TLE details & history
Last TLE update: 1 month ago

TLE from 1 month ago
0 FENGYUN 1C DEB
1 32099U 99025CQR 26022.68780468  .00002242  00000-0  11053-2 0  9999
2 32099  98.2853 355.2553 0342716 160.5462  16.6431 13.91928698652577
Epoch: 2026-01-22T16:30Z
TLE epoch observation values (Epoch: 2026-01-22T16:30:26.324Z)
Latitude
1.51296°
Longitude
165.82741°
Altitude
685.577 km
Speed
7.636 km/s
True Right ascension
11h 41m 53s
True Declination
1° 30' 14"
Sunlit
Object was in full shadow at epoch
Visualization orbit readout
Latitude
Unknown
Longitude
Unknown
Altitude
Unknown
Speed
Unknown
Apparent Right ascension
Unknown
Apparent Declination
Unknown
Sunlit
N/A
Visualization observer readout
Local Sidereal Time
20:06:12
Azimuth
Unknown
Elevation
Unknown
Doppler factor
Unknown
Orbital elements
Apogee altitude
1,169.138 km
Perigee altitude
668.965 km
Semi-major axis
7,297.188 km
Eccentricity
0.03427
Inclination
98.2853°
RAAN
355.2553°
Arg. of periapsis
160.5462°
True anomaly
17.81587°
Mean anomaly
16.6431°
Eccentric anomaly
17.22456°
Mean motion
3.48185 °/min
Orbital period
103.39 mins
BSTAR
0.0011053
Loading maneuver chart data...
Computing Atmospheric mass density...

Documentation

Showing up to 5 results
|